Regional Weather Roundup
Issued by NWS Newport/Morehead, NC

Current Version | Previous Version | Text Only | Print | Product List | Glossary Off
Versions: 1 2 3 4 5 6 7 8 9 10 11 12 13 14 15 16 17 18 19 20 21 22 23 24 25 26 27 28 29 30 31 32 33 34 35 36 37 38 39 40 41 42 43 44 45 46 47 48 49 50
000 ASUS42 KMHX 272210 RWRMHX WEATHER ROUNDUP FOR EASTERN NORTH CAROLINA NATIONAL WEATHER SERVICE NEWPORT/MOREHEAD CITY NC 500 PM EST SAT DEC 27 2014 NOTE: "FAIR" INDICATES FEW OR NO CLOUDS BELOW 12,000 FEET WITH NO SIGNIFICANT WEATHER AND/OR OBSTRUCTIONS TO VISIBILITY NCZ015>017-031-032-045>047-102-103-272300- NORTH COAST CITY SKY/WX TMP DP RH WIND PRES REMARKS EDENTON CLEAR 53 40 61 CALM 30.24S ELIZABETH CITY CLEAR 56 39 53 SE7 30.24F KITTY HAWK CLEAR 51 39 63 CALM 30.24S MANTEO CLEAR 50 43 76 S6 30.26S $$ NCZ045>047-081-094-103-104-272300- CENTRAL COAST CITY SKY/WX TMP DP RH WIND PRES REMARKS FRISCO CLEAR 50 42 74 N5 30.27R SWANQUARTER N/A 52 N/A N/A SE1 30.21S $$ NCZ095-097-098-100-101-272300- SOUTHERN COAST CITY SKY/WX TMP DP RH WIND PRES REMARKS BEAUFORT CLEAR 54 44 69 S3 30.26S CEDAR ISLAND N/A 50 N/A N/A NE3 30.30S JACKSONVILLE CLEAR 55 43 63 SE6 30.25R PINEY ISLAND CLEAR 54 45 71 E6 30.26R WILMINGTON CLEAR 57 41 55 SE5 30.25R $$ NCZ011>013-027>030-043-044-078>080-089-090>093-098-272300- COASTAL PLAIN CITY SKY/WX TMP DP RH WIND PRES REMARKS AHOSKIE CLEAR 55 38 51 S3 30.23R CLINTON CLEAR 57 42 57 CALM 30.25R ELIZABETHTOWN CLEAR 61 44 54 CALM 30.25R GOLDSBORO CLEAR 58 45 62 S3 30.21F GREENVILLE CLEAR 54 37 54 CALM 30.24S HAVELOCK PTCLDY 56 41 57 SE3 30.26R KENANSVILLE CLEAR 56 37 50 CALM 30.24F KINSTON CLEAR 57 39 51 CALM 30.23F NEW BERN CLEAR 56 43 61 SE5 30.25S RICHLANDS CLEAR 57 41 54 SW3 30.25S ROCKY MOUNT CLEAR 53 41 63 CALM 30.22F WASHINGTON CLEAR 57 38 48 S3 30.24F WHITEVILLE CLEAR 61 46 57 CALM 30.24R $$ AMZ130-135-150-152-154-156-158-170-250-252-270-ANZ085-086-088-633-658-670-272300- MARINE OBSERVATIONS STATION/POSITION TIME TEMP WIND PRES WAVE SWELL AIR SEA DIR/SP/G HT/PER HT/PER (UTC) (F) (DEG/KT/KT) (MB) (FT/S) (FT/S) CHESAPEAKE LIGHT 2100 50 180/ 17/ 17 1024.0 64 E VA BEACH 2200 52 53 190/ 8/ 10 1024.0 3/15 3/15 DUCK 2200 51 49 150/ 8/ 8 1023.4 2 E DUCK 2200 49 N/A 3/15 2/15 10 NE DUCK 2200 51 N/A 3/15 2/15 OREGON INLET 2200 52 53 160/ 4/ 5 1024.7 13E OREGON INLT 2200 53 N/A 3/17 2/17 HATTERAS CG 2200 53 54 340/ 3/ 3 1025.3 DIAMOND BUOY 2200 63 1025.0 3/16 17 S OCRACOKE NOT AVBL CAPE LOOKOUT 2100 56 160/ 3/ 3 1024.5 BEAUFORT LAB 2200 55 55 210/ 2/ 4 1023.7 30 SE NEW RIVER 2200 61 62 CALM / 4 1025.2 2/16 5 SE WRIGHTSVLE NOT AVBL 225 S CAPE HAT 2150 69 74 130/ 8/ 12 1025.2 5/15 5/15 41 SE CHARLESTON 2200 67 74 50/ 10/ 14 1023.3 3/ 8 2/ 8 $$

USA.gov is the U.S. government's official web portal to all federal, state and local government web resources and services.